This demonstration page uses our WeatherBlox Daily Observations layout. Learn more.

38.88101, -77.10428

Hourly Observations for October 1, 2017

Temp ( °F °C ) Dew Point ( °F °C ) Humidity (%) Winds ( mph kmh ) Pressure ( in mb ) Visibility ( mi km ) Precip ( " mm )
12:52 am 00:52 Clear 57 13.9 43 6.1 60 60 N 14 22 30.37 1028 10 16.0934 0 0
1:52 am 01:52 Clear 56 13.3 43 6.1 62 62 N 14 22 30.37 1028 10 16.0934 0 0
2:52 am 02:52 Clear 55 12.8 42 5.6 62 62 NNE 13 20 30.37 1028 10 16.0934 0 0
3:52 am 03:52 Clear 53 11.7 43 6.1 69 69 N 10 17 30.37 1029 10 16.0934 0 0
4:52 am 04:52 Clear 52 11.1 43 6.1 72 72 NNW 10 17 30.38 1029 10 16.0934 0 0
5:52 am 05:52 Clear 53 11.7 43 6.1 69 69 NNE 13 20 30.38 1029 10 16.0934 0 0
6:52 am 06:52 Clear 52 11.1 43 6.1 72 72 NNE 8 13 30.38 1029 10 16.0934 0 0
7:52 am 07:52 Sunny 53 11.7 44 6.7 72 72 NNW 8 13 30.4 1029 10 16.0934 0 0
8:52 am 08:52 Sunny 56 13.3 44 6.7 65 65 N 7 11 30.41 1030 10 16.0934 0 0
9:52 am 09:52 Sunny 60 15.6 46 7.8 60 60 N 9 15 30.41 1030 10 16.0934 0 0
10:52 am 10:52 Sunny 62 16.7 46 7.8 56 56 N 6 9 30.42 1030 10 16.0934 0 0
11:52 am 11:52 Mostly Sunny 65 18.3 46 7.8 51 51 NNE 5 7 30.41 1030 10 16.0934 0 0
12:52 pm 12:52 Partly Cloudy 67 19.4 47 8.3 49 49 ENE 6 9 30.39 1029 10 16.0934 0 0
1:52 pm 13:52 Mostly Sunny 68 20 46 7.8 45 45 Calm 30.37 1028 10 16.0934 0 0
2:52 pm 14:52 Mostly Sunny 70 21.1 46 7.8 42 42 N 9 15 30.34 1028 10 16.0934 0 0
3:52 pm 15:52 Mostly Sunny 70 21.1 46 7.8 42 42 Calm 30.32 1027 10 16.0934 0 0
4:52 pm 16:52 Mostly Sunny 69 20.6 46 7.8 44 44 Calm 30.31 1026 10 16.0934 0 0
5:52 pm 17:52 Mostly Sunny 68 20 48 8.9 49 49 S 8 13 30.31 1026 10 16.0934 0 0
6:52 pm 18:52 Mostly Clear 65 18.3 47 8.3 52 52 S 7 11 30.32 1027 10 16.0934 0 0
7:52 pm 19:52 Mostly Clear 64 17.8 48 8.9 56 56 SW 6 9 30.32 1027 10 16.0934 0 0
8:52 pm 20:52 Clear 62 16.7 52 11.1 70 70 SSE 3 6 30.33 1027 10 16.0934 0 0
9:52 pm 21:52 Clear 61 16.1 53 11.7 75 75 Calm 30.33 1027 10 16.0934 0 0
10:52 pm 22:52 Clear 60 15.6 51 10.6 72 72 Calm 30.34 1027 10 16.0934 0 0
11:52 pm 23:52 Clear 59 15 51 10.6 75 75 Calm 30.34 1028 10 16.0934 0 0

Powered by AerisWeather